CZ-6A DEB, 56671

Orbit data source: Space-Track

CZ-6A DEB, 56671 is space debris in SSO originally from a launch on Fri, 11 Nov 2022 UTC launched from the Taiyaun Space Center, China (TSC). Debris objects in space refer to the collection of defunct objects orbiting the Earth. Examples of debris include non-operational satellites, rocket bodies, and fragments generated from explosions, collisions, or faulty payload assembly.

Loading next visibility...
Identifier
56671, 2022-151AGX
Orbit
SSO
Country
Flag of CNCN / PRC
Related business
Manufacturer
SAST
Mission
Spacecraft
Bus & Motor
Unknown
Mass
Unknown
Launch date (UTC)
2022-11-11 (4 years ago)
Launch vehicle
Unknown
Launch site
Taiyaun Space Center, China (TSC)
Object type
Payload
Rocket body
Debris
Shape & HBR
Unknown shape, 0.1 m
Radar Cross Section
Medium (>0.1 m² and <1 m²)

Expand to show TLE details & history
Last TLE update: 1 week ago

TLE from 1 week ago
0 CZ-6A DEB
1 56671U 22151AGX 26230.35767377  .00000395  00000-0  30846-3 0  9995
2 56671  98.9226 199.1564 0119965 269.7623  88.9792 13.94734222168953
Epoch: 2026-08-18T08:35Z
TLE epoch observation values (Epoch: 2026-08-18T08:35:03.013Z)
Latitude
-0.00003°
Longitude
103.6672°
Altitude
914.451 km
Speed
7.395 km/s
True Right ascension
13h 16m 37s
True Declination
0° 00' 00"
Sunlit
Object was in daylight at epoch
Visualization orbit readout
Latitude
Unknown
Longitude
Unknown
Altitude
Unknown
Speed
Unknown
Apparent Right ascension
Unknown
Apparent Declination
Unknown
Sunlit
N/A
Visualization observer readout
Local Sidereal Time
15:07:29
Azimuth
Unknown
Elevation
Unknown
Doppler factor
Unknown
Orbital elements
Apogee altitude
996.713 km
Perigee altitude
821.865 km
Semi-major axis
7,287.426 km
Eccentricity
0.012
Inclination
98.9226°
RAAN
199.1564°
Arg. of periapsis
269.7623°
True anomaly
90.35391°
Mean anomaly
88.9792°
Eccentric anomaly
89.66654°
Mean motion
3.48885 °/min
Orbital period
103.19 mins
BSTAR
0.00030846
Loading maneuver chart data...
Computing Atmospheric mass density...
Loading historical data...
Loading historical data...
Loading historical data...
Loading historical data...
Loading historical data...
Loading historical data...
Loading historical data...

Documentation

Showing up to 5 results
|